User: anonymous   Login
Location: Parc des �les de St-Timoth�e
(45.2924°N, 74.0481°W)
Time: 03:00:10
(UTC-04:00)
Language:

Cosmos 2173 Rocket - Orbit

View from above orbital plane
View from above orbital plane
View from above satellite
View from above satellite

Ground track
Ground track

The orbit data is extracted from the following two-line orbital elements,

1 21797U 91081B   17174.75523226 +.00000069 +00000-0 +53449-4 0  9991
2 21797 082.9545 057.3209 0039364 070.7028 351.1850 13.77398250285302
Epoch (UTC): 23 June 2017 18:07:32
Eccentricity: 0.0039364
inclination: 82.9545°
perigee height: 944 km
apogee height: 1002 km
right ascension of ascending node: 57.3209°
argument of perigee: 70.7028°
revolutions per day: 13.77398250
mean anomaly at epoch: 351.1850°
orbit number at epoch: 28530

The dashed part of the orbit path shows where the satellite is in the earth's shadow,  

DLR